Location: Moscow
(55.7500°N, 37.5830°E)
Time: 13:40:00
(UTC+03:00)

S-56A Canister/Altair - Pass Details

Date: 09 December 2021
Orbit: 633 x 2499 km, 38.9° (Epoch: 17 January)

Event Time Altitude Azimuth Distance (km) Brightness Sun altitude
Rises 01:34:48 0° 250° (WSW) 5,108 - -54.4°
Reaches altitude 10° 01:39:25 10° 238° (WSW) 3,755 - -54.1°
Maximum altitude 01:45:58 22° 193° (SSW) 2,411 - -53.6°
Drops below altitude 10° 01:50:58 10° 145° (SE) 2,776 - -53.2°
Sets 01:53:48 0° 129° (SE) 3,494 - -52.9°
